Herbert Island, British Columbia

2:12 PM PDT on October 19, 2017 (GMT -0700)
Herbert Island

Weather History for CWLP - February, 2013

Change the Weather History Date:

Friday, February 1, 2013

  Actual Average Record
Temperature  
Mean Temperature 44 °F -  
Max Temperature 46 °F - - ()
Min Temperature 43 °F - - ()
Degree Days  
Heating Degree Days 20    
Moisture  
Dew Point 41 °F    
Average Humidity 88    
Maximum Humidity 94    
Minimum Humidity 78    
Precipitation  
Precipitation 0.00 in - - ()
Sea Level Pressure  
Sea Level Pressure 30.36 in    
Wind  
Wind Speed 13 mph ()    
Max Wind Speed 21 mph    
Max Gust Speed -    
T = Trace of Precipitation, MM = Missing Value Source: Averaged Metar Reports

Daily Weather History Graph

Daily Weather History Graph

Search for Another Location

Airport or City:

Trip Planner

Search our weather history database for the weather conditions in past years. The results will help you decide how hot, cold, wet, or windy it might be!

Date:

Astronomy

Feb. 01, 2013 Rise Set
Actual Time 8:06 AM PST 5:22 PM PST
Civil Twilight 7:30 AM PST 5:58 PM PST
Nautical Twilight 6:51 AM PST 6:37 PM PST
Astronomical Twilight 6:12 AM PST 7:16 PM PST
Moon No Moon Rise 9:58 AM PST (2/1)
Length of Visible Light 10h 27m
Length of Day
9h 16m
Waning Gibbous, 69% of the Moon is Illuminated
Feb 1
Waning Gibbous
Feb 3
Last Quarter
Feb 9
New
Feb 17
First Quarter
Feb 25
Full

Hourly Weather History & Observations

Time (PST) Temp. Windchill Dew Point Humidity Pressure Visibility Wind Dir Wind Speed Gust Speed Precip Events Conditions
12:00 AM 44.4 °F 38.6 °F 42.8 °F 94% 30.32 in - ESE 11.5 mph - N/A   Unknown
1:00 AM 44.2 °F 39.2 °F 42.6 °F 94% 30.33 in - ESE 9.2 mph - N/A   Unknown
2:00 AM 44.4 °F 39.5 °F 42.6 °F 93% 30.34 in - ESE 9.2 mph - N/A   Unknown
3:00 AM 44.4 °F 37.5 °F 42.8 °F 94% 30.34 in - ESE 15.0 mph - N/A   Unknown
4:00 AM 44 °F - 42 °F 92% 30.34 in - SE 15.0 mph - -  
4:00 AM 44.2 °F 37.3 °F 42.4 °F 93% 30.34 in - SE 15.0 mph - N/A   Unknown
5:00 AM 44.1 °F 37.4 °F 41.9 °F 92% 30.34 in - SE 13.8 mph - N/A   Unknown
6:00 AM 44.1 °F 37.1 °F 41.7 °F 91% 30.34 in - SE 15.0 mph - N/A   Unknown
7:00 AM 43.9 °F 36.5 °F 41.5 °F 91% 30.33 in - SE 16.1 mph - N/A   Unknown
9:00 AM 43.9 °F 35.7 °F 41.2 °F 90% 30.34 in - SE 19.6 mph - N/A   Unknown
10:00 AM 44 °F - 41 °F 85% 30.36 in - SE 20.7 mph - -  
10:00 AM 44.1 °F 35.7 °F 41.0 °F 89% 30.36 in - SE 20.7 mph - N/A   Unknown
11:00 AM 44.4 °F 36.4 °F 41.2 °F 88% 30.36 in - SE 19.6 mph - N/A   Unknown
12:00 PM 44.4 °F 36.4 °F 40.6 °F 87% 30.38 in - SE 19.6 mph - N/A   Unknown
1:00 PM 44.8 °F 38.7 °F 41.4 °F 88% 30.39 in - SE 12.7 mph - N/A   Unknown
2:00 PM 45.9 °F 38.8 °F 42.1 °F 87% 30.37 in - SE 17.3 mph - N/A   Unknown
3:00 PM 45.5 °F 39.6 °F 42.1 °F 88% 30.37 in - SE 12.7 mph - N/A   Unknown
4:00 PM 46 °F - 41 °F 78% 30.37 in - SE 13.8 mph - -  
4:00 PM 45.5 °F 39.2 °F 41.4 °F 85% 30.37 in - SE 13.8 mph - N/A   Unknown
5:00 PM 45.5 °F 38.1 °F 41.0 °F 84% 30.36 in - SE 18.4 mph - N/A   Unknown
6:00 PM 45.1 °F 37.6 °F 41.2 °F 86% 30.35 in - SE 18.4 mph - N/A   Unknown
7:00 PM 45.1 °F 37.6 °F 40.8 °F 85% 30.35 in - SE 18.4 mph - N/A   Unknown
8:00 PM 45.1 °F 37.3 °F 40.6 °F 84% 30.36 in - SE 19.6 mph - N/A   Unknown
9:00 PM 45.0 °F 37.4 °F 40.5 °F 84% 30.39 in - SSE 18.4 mph - N/A   Unknown
10:00 PM 45 °F - 41 °F 79% 30.38 in - SE 18.4 mph - -  
10:00 PM 44.8 °F 37.1 °F 40.6 °F 85% 30.38 in - SE 18.4 mph - N/A   Unknown
11:00 PM 44.8 °F 36.9 °F 40.6 °F 85% 30.39 in - SE 19.6 mph - N/A   Unknown